Weather History for Plattsmouth, NE

Change the Weather History Date:

Sunday, February 17, 2013

  Actual Average (KOFF) Record (KOFF)
Temperature  
Mean Temperature 40 °F -  
Max Temperature 56 °F 38 °F 68 °F (2011)
Min Temperature 24 °F 21 °F 0 °F (2006)
Degree Days  
Heating Degree Days 25    
Moisture  
Dew Point 27 °F    
Average Humidity 63    
Maximum Humidity 84    
Minimum Humidity 39    
Precipitation  
Precipitation 0.00 in - - ()
Sea Level Pressure  
Sea Level Pressure 29.81 in    
Wind  
Wind Speed 10 mph (SE)    
Max Wind Speed 20 mph    
Max Gust Speed 25 mph    
Visibility 10 miles    
Events      
Averages and records for this station are not official NWS values.
T = Trace of Precipitation, MM = Missing Value Source: NWS Daily Summary

Daily Weather History Graph

Daily Weather History Graph

Search for Another Location

Airport:

Trip Planner

Search our weather history database for the weather conditions in past years. The results will help you decide how hot, cold, wet, or windy it might be!

Date:

Astronomy

Feb. 17, 2013 Rise Set
Actual Time 7:14 AM CST 6:00 PM CST
Civil Twilight 6:46 AM CST 6:29 PM CST
Nautical Twilight 6:14 AM CST 7:01 PM CST
Astronomical Twilight 5:43 AM CST 7:32 PM CST
Moon 11:05 AM CST (2/17) 1:01 AM CST (2/17)
Length of Visible Light 11h 42m
Length of Day
10h 46m
Waxing Crescent, 49% of the Moon is Illuminated
Feb 17
Waxing Crescent
Feb 17
First Quarter
Feb 25
Full
Mar 4
Last Quarter
Mar 11
New

Hourly Weather History & Observations

Time (CST) Temp. Windchill Dew Point Humidity Pressure Visibility Wind Dir Wind Speed Gust Speed Precip Events Conditions
12:15 AM 28.4 °F 21.2 °F 22.1 °F 77% 30.00 in 10.0 mi SE 6.9 mph - N/A   Clear
12:35 AM 28.4 °F 21.2 °F 22.1 °F 77% 30.00 in 10.0 mi SE 6.9 mph - N/A   Clear
12:55 AM 28.0 °F 20.8 °F 22.1 °F 78% 30.00 in 10.0 mi SE 6.9 mph - N/A   Clear
1:15 AM 27.5 °F 21.1 °F 22.1 °F 80% 30.00 in 10.0 mi ESE 5.8 mph - N/A   Clear
1:35 AM 27.5 °F 21.1 °F 22.1 °F 80% 30.00 in 10.0 mi ESE 5.8 mph - N/A   Clear
1:55 AM 27.1 °F 21.8 °F 21.9 °F 81% 30.00 in 10.0 mi ESE 4.6 mph - N/A   Clear
2:15 AM 26.6 °F 19.1 °F 21.7 °F 82% 30.00 in 10.0 mi ESE 6.9 mph - N/A   Clear
2:35 AM 26.6 °F 19.1 °F 21.7 °F 82% 29.99 in 10.0 mi SE 6.9 mph - N/A   Clear
2:55 AM 26.4 °F 18.0 °F 21.4 °F 81% 29.99 in 10.0 mi ESE 8.1 mph - N/A   Clear
3:15 AM 26.4 °F 18.0 °F 21.2 °F 81% 29.98 in 10.0 mi ESE 8.1 mph - N/A   Clear
3:35 AM 26.2 °F 19.6 °F 21.2 °F 81% 29.98 in 10.0 mi SE 5.8 mph - N/A   Clear
3:55 AM 25.7 °F 20.1 °F 21.0 °F 82% 29.97 in 10.0 mi ESE 4.6 mph - N/A   Clear
4:15 AM 25.3 °F 18.5 °F 20.8 °F 83% 29.97 in 10.0 mi SE 5.8 mph - N/A   Clear
4:35 AM 25.2 °F 17.3 °F 20.3 °F 82% 29.96 in 10.0 mi ESE 6.9 mph - N/A   Clear
4:55 AM 24.8 °F 17.9 °F 20.3 °F 83% 29.96 in 10.0 mi SE 5.8 mph - N/A   Clear
5:15 AM 24.8 °F 17.9 °F 20.7 °F 84% 29.96 in 10.0 mi ESE 5.8 mph - N/A   Clear
5:35 AM 25.2 °F 17.3 °F 20.5 °F 82% 29.95 in 10.0 mi SE 6.9 mph - N/A   Clear
5:55 AM 25.3 °F 18.5 °F 20.3 °F 81% 29.95 in 10.0 mi SE 5.8 mph - N/A   Clear
6:15 AM 25.3 °F 17.6 °F 20.3 °F 81% 29.95 in 10.0 mi SE 6.9 mph - N/A   Clear
6:35 AM 24.8 °F 17.9 °F 20.3 °F 83% 29.94 in 10.0 mi SE 5.8 mph - N/A   Clear
6:55 AM 24.6 °F 17.7 °F 20.3 °F 84% 29.94 in 10.0 mi SE 5.8 mph - N/A   Clear
7:15 AM 25.5 °F 16.9 °F 20.3 °F 81% 29.93 in 10.0 mi SE 8.1 mph - N/A   Clear
7:35 AM 25.5 °F 16.2 °F 20.7 °F 82% 29.93 in 10.0 mi SE 9.2 mph - N/A   Clear
7:55 AM 26.6 °F 16.2 °F 21.2 °F 80% 29.93 in 10.0 mi SSE 11.5 mph - N/A   Clear
8:15 AM 28.0 °F 18.6 °F 21.6 °F 77% 29.93 in 10.0 mi SE 10.4 mph 16.1 mph N/A   Clear
8:35 AM 29.7 °F 20.1 °F 22.3 °F 74% 29.93 in 10.0 mi SSE 11.5 mph - N/A   Clear
8:55 AM 30.2 °F 20.2 °F 22.1 °F 72% 29.92 in 10.0 mi SE 12.7 mph - N/A   Clear
9:15 AM 31.5 °F 21.4 °F 22.1 °F 68% 29.91 in 10.0 mi SSE 13.8 mph 17.3 mph N/A   Clear
9:35 AM 32.2 °F 23.2 °F 23.2 °F 69% 29.91 in 10.0 mi SE 11.5 mph 18.4 mph N/A   Clear
9:55 AM 34.0 °F 25.5 °F 23.7 °F 66% 29.89 in 10.0 mi SE 11.5 mph - N/A   Clear
10:15 AM 35.8 °F 27.8 °F 24.6 °F 64% 29.88 in 10.0 mi SE 11.5 mph 16.1 mph N/A   Clear
10:35 AM 38.3 °F 31.4 °F 25.2 °F 59% 29.88 in 10.0 mi SE 10.4 mph 17.3 mph N/A   Clear
10:55 AM 40.3 °F 33.0 °F 25.3 °F 55% 29.87 in 10.0 mi SSE 12.7 mph - N/A   Clear
11:15 AM 41.7 °F 35.6 °F 25.7 °F 53% 29.87 in 10.0 mi SE 10.4 mph - N/A   Clear
11:35 AM 43.3 °F 36.5 °F 26.4 °F 51% 29.86 in 10.0 mi SE 13.8 mph 20.7 mph N/A   Clear
11:55 AM 43.5 °F 35.8 °F 26.2 °F 51% 29.85 in 10.0 mi SSE 17.3 mph - N/A   Clear
12:15 PM 45.1 °F 38.1 °F 27.7 °F 50% 29.83 in 10.0 mi SSE 16.1 mph 21.9 mph N/A   Clear
12:55 PM 47.7 °F - 28.8 °F 48% 29.79 in 10.0 mi SSE 13.8 mph - N/A   Clear
1:15 PM 48.7 °F - 28.8 °F 46% 29.78 in 10.0 mi SSE 16.1 mph 21.9 mph N/A   Clear
1:35 PM 49.6 °F - 29.5 °F 46% 29.76 in 10.0 mi SSE 19.6 mph - N/A   Clear
1:55 PM 50.4 °F - 29.8 °F 45% 29.75 in 10.0 mi SE 17.3 mph 24.2 mph N/A   Clear
2:15 PM 51.6 °F - 30.2 °F 44% 29.73 in 10.0 mi SE 19.6 mph 24.2 mph N/A   Clear
2:35 PM 52.7 °F - 30.2 °F 42% 29.73 in 10.0 mi SE 15.0 mph - N/A   Clear
2:55 PM 53.6 °F - 30.7 °F 42% 29.71 in 10.0 mi SSE 15.0 mph 21.9 mph N/A   Clear
3:15 PM 54.7 °F - 30.7 °F 40% 29.70 in 10.0 mi SE 16.1 mph 20.7 mph N/A   Clear
3:35 PM 54.7 °F - 30.7 °F 40% 29.69 in 10.0 mi SSE 16.1 mph 23.0 mph N/A   Clear
3:55 PM 54.1 °F - 31.1 °F 41% 29.68 in 10.0 mi SSE 11.5 mph 19.6 mph N/A   Clear
4:15 PM 56.5 °F - 31.8 °F 39% 29.68 in 10.0 mi SSE 11.5 mph 17.3 mph N/A   Clear
4:35 PM 55.8 °F - 31.6 °F 40% 29.67 in 10.0 mi SSE 15.0 mph 23.0 mph N/A   Clear
4:55 PM 54.7 °F - 32.0 °F 42% 29.66 in 10.0 mi SSE 15.0 mph 19.6 mph N/A   Clear
5:15 PM 52.7 °F - 32.0 °F 45% 29.65 in 10.0 mi SSE 12.7 mph 18.4 mph N/A   Clear
5:35 PM 52.2 °F - 32.2 °F 47% 29.65 in 10.0 mi SSE 12.7 mph - N/A   Clear
5:55 PM 51.3 °F - 32.5 °F 49% 29.64 in 10.0 mi SE 10.4 mph - N/A   Clear
6:15 PM 50.0 °F - 32.4 °F 51% 29.65 in 10.0 mi SSE 12.7 mph - N/A   Clear
6:55 PM 48.9 °F - 32.0 °F 52% 29.65 in 10.0 mi SE 13.8 mph 19.6 mph N/A   Clear
7:15 PM 48.2 °F - 32.0 °F 54% 29.65 in 10.0 mi SSE 16.1 mph 20.7 mph N/A   Clear
7:35 PM 48.2 °F - 32.0 °F 54% 29.64 in 10.0 mi SSE 16.1 mph 21.9 mph N/A   Clear
7:55 PM 48.2 °F - 31.6 °F 53% 29.64 in 10.0 mi SSE 16.1 mph 21.9 mph N/A   Clear
8:15 PM 48.2 °F - 31.6 °F 53% 29.62 in 10.0 mi SSE 17.3 mph 24.2 mph N/A   Clear
8:35 PM 48.0 °F - 31.5 °F 53% 29.62 in 10.0 mi SSE 16.1 mph 25.3 mph N/A   Clear
8:55 PM 46.6 °F - 31.5 °F 56% 29.61 in 10.0 mi SE 13.8 mph - N/A   Clear
9:15 PM 45.7 °F 39.1 °F 31.3 °F 57% 29.61 in 10.0 mi SSE 15.0 mph - N/A   Clear
9:35 PM 45.7 °F 39.1 °F 31.5 °F 58% 29.61 in 10.0 mi SSE 15.0 mph 20.7 mph N/A   Clear
9:55 PM 45.9 °F 38.8 °F 31.6 °F 58% 29.60 in 10.0 mi SSE 17.3 mph 20.7 mph N/A   Clear
10:15 PM 46.4 °F 39.2 °F 31.8 °F 57% 29.59 in 10.0 mi SSE 18.4 mph 24.2 mph N/A   Clear
10:35 PM 46.4 °F 39.8 °F 32.0 °F 57% 29.59 in 10.0 mi SSE 16.1 mph 23.0 mph N/A   Clear
10:55 PM 45.9 °F 39.1 °F 32.0 °F 58% 29.58 in 10.0 mi SSE 16.1 mph 21.9 mph N/A   Clear
11:15 PM 45.1 °F 38.4 °F 32.0 °F 60% 29.57 in 10.0 mi SSE 15.0 mph 19.6 mph N/A   Clear
11:35 PM 44.8 °F 38.3 °F 32.0 °F 61% 29.57 in 10.0 mi SSE 13.8 mph - N/A   Clear
11:55 PM 44.8 °F 38.7 °F 32.0 °F 61% 29.56 in 10.0 mi SSE 12.7 mph - N/A   Clear